Regional Weather Roundup
Issued by NWS Newport/Morehead, NC

Home | Current Version | Previous Version | Text Only | Print | Product List | Glossary On
Versions: 1 2 3 4 5 6 7 8 9 10 11 12 13 14 15 16 17 18 19 20 21 22 23 24 25 26 27 28 29 30 31 32 33 34 35 36 37 38 39 40 41 42 43 44 45 46 47 48 49 50
000
ASUS42 KMHX 270222
RWRMHX
WEATHER ROUNDUP FOR EASTERN NORTH CAROLINA
NATIONAL WEATHER SERVICE NEWPORT/MOREHEAD CITY NC
900 PM EST WED NOV 26 2014

NOTE: "FAIR" INDICATES FEW OR NO CLOUDS BELOW 12,000 FEET
WITH NO SIGNIFICANT WEATHER AND/OR OBSTRUCTIONS TO VISIBILITY

NCZ015>017-031-032-045>047-102-103-270300-
NORTH COAST

CITY           SKY/WX    TMP DP  RH WIND       PRES   REMARKS
EDENTON        CLOUDY    41  38  88 W9        30.05R
ELIZABETH CITY MOCLDY    43  37  79 W10       30.01R
KITTY HAWK     CLOUDY    42  38  89 NW8       29.98R
MANTEO         CLOUDY    42  38  86 W8G16     30.02R

$$

NCZ045>047-081-094-103-104-270300-
CENTRAL COAST

CITY           SKY/WX    TMP DP  RH WIND       PRES   REMARKS
FRISCO         MOCLDY    44  40  85 NW13G21   30.02R
SWANQUARTER      N/A     43 N/A N/A NW10G16   30.03R

$$

NCZ095-097-098-100-101-270300-
SOUTHERN COAST

CITY           SKY/WX    TMP DP  RH WIND       PRES   REMARKS
BEAUFORT       MOCLDY    46  41  82 NW15      30.07R
CEDAR ISLAND     N/A     45 N/A N/A W16G28    30.09R
JACKSONVILLE   PTCLDY    44  39  82 NW7       30.07S
PINEY ISLAND   CLOUDY    47  39  74 W20       30.05R
WILMINGTON     CLEAR     45  42  89 NW3       30.09R


$$

NCZ011>013-027>030-043-044-078>080-089-090>093-098-270300-
COASTAL PLAIN

CITY           SKY/WX    TMP DP  RH WIND       PRES   REMARKS
AHOSKIE        CLOUDY    38  37  92 CALM      30.06R
CLINTON        CLEAR     40  40 100 CALM      30.09R
ELIZABETHTOWN  CLEAR     41  41 100 CALM      30.07F
GOLDSBORO      MOCLDY    41  41 100 CALM      30.07R
GREENVILLE     CLOUDY    41  37  87 NW7       30.10R
HAVELOCK       CLOUDY    45  39  79 NW12      30.09R
KENANSVILLE    CLEAR     40  40  97 CALM      30.09R
KINSTON        CLOUDY    43  39  87 NE3       30.08S
NEW BERN       CLOUDY    46  40  79 W9        30.09R
RICHLANDS      PTCLDY    43  37  81 CALM      30.08S
ROCKY MOUNT    PTCLDY    40  37  89 W3        30.08R
WASHINGTON     CLOUDY    41  38  89 W8        30.08R
WHITEVILLE     CLEAR     43  42  97 CALM      30.08R

$$

AMZ130-135-150-152-154-156-158-170-250-252-270-ANZ085-086-088-633-658-670-270300-
MARINE OBSERVATIONS

STATION/POSITION TIME  TEMP    WIND        PRES    WAVE   SWELL
                       AIR SEA DIR/SP/G            HT/PER HT/PER
                 (UTC) (F)     (DEG/KT/KT) (MB)    (FT/S) (FT/S)
CHESAPEAKE LIGHT 0200   44     320/ 24/ 27 1015.0
64 E VA BEACH    0200   47 62  300/ 21/ 27 1012.4   11/ 8   3/16
DUCK             0200   42 56  310/ 13/ 17 1014.8
2 E DUCK         0200      57                N/A     6/ 8   2/11
10 NE DUCK       0200      59                N/A     8/ 8   2/11
OREGON INLET     0200   44 58  290/ 11/ 19 1015.9
13E OREGON INLT  0200      63                N/A     9/ 8   2/11
HATTERAS CG      0200   46 62  300/ 18/ 20 1017.3
DIAMOND BUOY     0200   50     280/ 19/ 23 1016.1   10/ 8
17 S OCRACOKE    NOT AVBL
CAPE LOOKOUT     0200   47     300/ 20/ 23 1017.7
BEAUFORT LAB     0200   46 58  310/  8/ 12 1017.1
30 SE NEW RIVER  0200   52 67  300/ 19/ 25 1017.9    6/ 9   3/ 9
5 SE WRIGHTSVLE  0200   47 59  330/ 12/ 16 1017.9
225 S CAPE HAT   0105   68 73  290/ 23/ 29 1017.1   12/ 8
41 SE CHARLESTON 0200   60 74  280/ 12/ 17 1018.7    4/ 5   3/ 8

$$



USA.gov is the U.S. government's official web portal to all federal, state and local government web resources and services.